Powrót do katalogu

STARLINK-34649

AktywnyŁącznośćVLEO
NORAD 64798·PAYLOAD·🇺🇸 United States

Wystrzelony Jul 16, 2025 z Vandenberg Space Force Base

Loading…

Następne Przeloty (najbliższe 24 godziny)

TLE

ŚwieżeSource: CelesTrak SupGP

Epoka: Sep 15, 2026, 02:53 UTC

1 64798C 25150J   26258.12062500  .00038280  00000+0  32081-2 0  2580
2 64798  70.0032  16.9200 0003291 268.6687 305.4296 14.98309951    13

Śledź STARLINK-34649 w czasie rzeczywistym z AllMySat

Download on the App Store